Happy Valentine's Day! 

Flight Track Log - Related Links

Times and Time Zones

All times are in EST time to prevent confusion due to time zone crossing. See the BJS339 flight status page for this flight to view local times or setup timezone preferences in your user account.


Time Position Orientation Groundspeed Altitude Reporting Facility
EST Latitude Longitude Course Direction KTS MPH feet Rate Location/Type
Mon 01:58:15 PM 43.5714 -79.6567 122° Southeast 268 308 6,300  Level Cleveland Center
Mon 01:59:16 PM 43.5217 -79.5878 135° Southeast 307 353 6,900 341 Climbing Cleveland Center
Mon 02:00:18 PM 43.5247 -79.4767 88° East 295 339 7,000 581 Climbing Cleveland Center
Mon 02:01:20 PM 43.5242 -79.3650 90° East 293 337 8,100 2,244 Climbing Cleveland Center
Mon 02:02:00 PM 43.3442 -78.8050 122° Southeast  Level Estimated
Mon 02:02:21 PM 43.5108 -79.2294 98° East 304 350 11,600  Level Cleveland Center
Mon 02:03:00 PM 43.2962 -78.6878 122° Southeast  Level Estimated
Mon 02:03:23 PM 43.4844 -79.0975 105° East 355 409 13,800  Level Cleveland Center
Mon 02:04:25 PM 43.4408 -78.9642 114° Southeast 382 440 16,200 2,293 Climbing Cleveland Center
Mon 02:05:26 PM 43.3822 -78.8339 122° Southeast 400 460 18,500 2,537 Climbing Cleveland Center
Mon 02:06:28 PM 43.3319 -78.6931 116° Southeast 419 482 21,400 2,710 Climbing Cleveland Center
Mon 02:07:30 PM 43.2867 -78.5397 112° Southeast 431 496 24,100 2,371 Climbing Cleveland Center
Mon 02:08:32 PM 43.2408 -78.3753 111° Southeast 458 527 26,300 2,146 Climbing Cleveland Center
Mon 02:09:33 PM 43.1914 -78.2147 113° Southeast 457 526 28,500 2,195 Climbing Cleveland Center
Mon 02:10:35 PM 43.0983 -78.0517 128° Southeast 453 521 30,800 1,645 Climbing Cleveland Center
Mon 02:11:37 PM 43.0492 -77.8758 111° Southeast 490 564 31,900 1,016 Climbing Cleveland Center
Mon 02:12:39 PM 42.9975 -77.6936 111° Southeast 506 582 32,900 532 Climbing Cleveland Center
Mon 02:13:41 PM 42.9442 -77.5072 111° Southeast 517 595 33,000 49 Climbing Cleveland Center
Mon 02:14:42 PM 42.8911 -77.3206 111° Southeast 521 600 33,000  Level Cleveland Center
Mon 02:15:44 PM 42.8386 -77.1381 111° Southeast 515 593 33,000  Level Cleveland Center
Mon 02:16:21 PM 42.8058 -77.0306 113° Southeast 511 588 33,000  Level Boston Center
Mon 02:17:22 PM 42.7533 -76.8489 111° Southeast 514 592 33,000  Level Boston Center
Mon 02:18:23 PM 42.6981 -76.6639 112° Southeast 524 603 33,000  Level Boston Center
Mon 02:19:24 PM 42.6444 -76.4794 112° Southeast 525 604 33,000 -99 Level Boston Center
Mon 02:20:24 PM 42.5900 -76.2967 112° Southeast 524 603 32,800 -793 Descending Boston Center
Mon 02:21:25 PM 42.5333 -76.1072 112° Southeast 530 610 31,400 -1,785 Descending Boston Center
Mon 02:22:25 PM 42.4803 -75.9306 112° Southeast 515 593 29,200 -2,098 Descending Boston Center
Mon 02:23:28 PM 42.4264 -75.7528 112° Southeast 513 590 27,100 -2,274 Descending Boston Center
Mon 02:24:29 PM 42.3625 -75.5433 112° Southeast 510 587 24,500 -2,262 Descending Boston Center
Mon 02:25:30 PM 42.3142 -75.3856 112° Southeast 482 555 22,500 -1,934 Descending Boston Center
Mon 02:26:30 PM 42.2694 -75.2447 113° Southeast 447 514 20,600 -1,707 Descending Boston Center
Mon 02:27:33 PM 42.2219 -75.0936 113° Southeast 425 489 19,000 -1,258 Descending Boston Center
Mon 02:28:34 PM 42.1767 -74.9522 113° Southeast 413 475 18,000 -492 Descending Boston Center
Mon 02:29:35 PM 42.1222 -74.8217 119° Southeast 402 463 18,000 -295 Level Boston Center
Mon 02:30:36 PM 42.0664 -74.6894 120° Southeast 406 467 17,400 -545 Descending Boston Center
Mon 02:31:36 PM 42.0028 -74.5383 119° Southeast 408 470 16,900 -744 Descending Boston Center
Mon 02:32:37 PM 41.9492 -74.4125 120° Southeast 390 449 15,900 -984 Descending Boston Center
Mon 02:33:38 PM 41.8850 -74.3014 128° Southeast 382 440 14,900 -1,033 Descending Boston Center
Mon 02:34:39 PM 41.8044 -74.2250 145° Southeast 356 410 13,800 -1,438 Descending Boston Center
Mon 02:35:39 PM 41.7183 -74.1450 145° Southeast 351 404 12,000 -1,785 Descending Boston Center
Mon 02:36:40 PM 41.6458 -74.0769 145° Southeast 321 369 10,200 -1,542 Descending Boston Center
Mon 02:38:03 PM 41.5500 -73.9833 144° Southeast 304 350 8,300 -1,343 Descending New York TRACON
Mon 02:39:03 PM 41.4833 -73.9167 143° Southeast 295 339 7,000 -1,350 Descending New York TRACON
Mon 02:40:03 PM 41.4167 -73.8667 151° Southeast 294 338 5,600 -1,350 Descending New York TRACON
Mon 02:41:03 PM 41.3500 -73.8000 143° Southeast 273 314 4,300 -1,150 Descending New York TRACON
Mon 02:42:03 PM 41.2833 -73.7500 151° Southeast 274 315 3,300 -650 Descending New York TRACON
Mon 02:43:03 PM 41.2333 -73.7000 143° Southeast 274 315 3,000 -150 Descending New York TRACON
Mon 02:44:03 PM 41.1667 -73.6333 143° Southeast 271 312 3,000  Level New York TRACON
Mon 02:45:03 PM 41.1000 -73.5833 151° Southeast 278 320 3,000 -250 Level New York TRACON
Mon 02:46:03 PM 41.0333 -73.5500 159° South 264 304 2,500 -500 Descending New York TRACON
Mon 02:47:03 PM 40.9833 -73.5333 166° South 223 257 2,000 -250 Descending New York TRACON
Mon 02:48:03 PM 40.9667 -73.6000 252° West 168 193 2,000  Level New York TRACON
Mon 02:49:03 PM 40.9833 -73.6500 294° West 136 157 2,000 -250 Level New York TRACON
Mon 02:50:03 PM 41.0167 -73.6667 339° North 117 135 1,500 -600 Descending New York TRACON
Mon 02:51:03 PM 41.0500 -73.6833 339° North 118 136 800 -700 Descending New York TRACON

Login

Don't have an account? Register now (free) for customized features, flight alerts, and more!